TimeMDT,TemperatureF,Dew PointF,Humidity,Sea Level PressureIn,VisibilityMPH,Wind Direction,Wind SpeedMPH,Gust SpeedMPH,PrecipitationIn,Events,Conditions,WindDirDegrees,DateUTC
12:55 AM,51.8,50.0,94,30.12,10.0,North,10.4,-,N/A,,Clear,350,2013-09-15 06:55:00
1:55 AM,55.4,51.8,88,30.14,10.0,NNW,10.4,-,N/A,,Mostly Cloudy,340,2013-09-15 07:55:00
2:55 AM,55.4,53.6,94,30.15,10.0,North,9.2,-,N/A,,Mostly Cloudy,350,2013-09-15 08:55:00
3:55 AM,55.4,53.6,94,30.17,10.0,NNW,10.4,-,N/A,,Mostly Cloudy,340,2013-09-15 09:55:00
4:55 AM,55.4,53.6,94,30.17,10.0,NNW,8.1,-,N/A,,Partly Cloudy,340,2013-09-15 10:55:00
5:55 AM,55.4,53.6,94,30.19,10.0,North,11.5,-,N/A,,Partly Cloudy,350,2013-09-15 11:55:00
6:55 AM,55.4,51.8,88,30.21,10.0,NNW,10.4,-,N/A,,Mostly Cloudy,340,2013-09-15 12:55:00
7:55 AM,55.4,51.8,88,30.23,10.0,North,13.8,-,N/A,,Mostly Cloudy,350,2013-09-15 13:55:00
8:55 AM,57.2,51.8,82,30.24,10.0,North,12.7,-,N/A,,Partly Cloudy,350,2013-09-15 14:55:00
9:55 AM,60.8,51.8,72,30.26,10.0,North,15.0,-,N/A,,Scattered Clouds,360,2013-09-15 15:55:00
10:55 AM,62.6,51.8,68,30.27,10.0,North,9.2,-,N/A,,Clear,350,2013-09-15 16:55:00
11:09 AM,62.6,51.8,68,30.27,10.0,North,9.2,-,N/A,,Mostly Cloudy,350,2013-09-15 17:09:00
11:20 AM,62.6,51.8,68,30.27,10.0,NNE,10.4,-,N/A,,Mostly Cloudy,30,2013-09-15 17:20:00
11:52 AM,62.6,51.8,68,30.27,10.0,NNW,12.7,17.3,N/A,,Mostly Cloudy,340,2013-09-15 17:52:00
11:55 AM,62.6,51.8,68,30.27,10.0,NNW,11.5,17.3,N/A,,Mostly Cloudy,330,2013-09-15 17:55:00
11:56 AM,62.6,51.8,68,30.27,10.0,NNW,11.5,17.3,N/A,,Mostly Cloudy,330,2013-09-15 17:56:00
12:05 PM,62.6,53.6,72,30.27,10.0,NW,12.7,-,N/A,Rain-Thunderstorm,Light Rain,320,2013-09-15 18:05:00
12:14 PM,59.0,53.6,82,30.27,10.0,NW,12.7,-,N/A,Rain-Thunderstorm,Light Rain,320,2013-09-15 18:14:00
12:17 PM,59.0,53.6,82,30.27,10.0,NNW,11.5,-,N/A,Thunderstorm,Overcast,330,2013-09-15 18:17:00
12:18 PM,59.0,53.6,82,30.27,10.0,NNW,11.5,-,N/A,Thunderstorm,Thunderstorm,330,2013-09-15 18:18:00
12:24 PM,59.0,53.6,82,30.27,10.0,NW,10.4,-,N/A,Rain-Thunderstorm,Light Thunderstorms and Rain,310,2013-09-15 18:24:00
12:30 PM,59.0,55.4,88,30.27,10.0,NW,12.7,-,N/A,Rain-Thunderstorm,Light Thunderstorms and Rain,310,2013-09-15 18:30:00
12:33 PM,57.2,55.4,94,30.27,8.0,NW,11.5,-,N/A,Rain,Light Rain,310,2013-09-15 18:33:00
12:37 PM,57.2,55.4,94,30.27,5.0,NW,10.4,-,N/A,Rain-Thunderstorm,Thunderstorms and Rain,310,2013-09-15 18:37:00
12:38 PM,57.2,55.4,94,30.27,4.0,NW,10.4,-,N/A,Rain-Thunderstorm,Heavy Thunderstorms and Rain,310,2013-09-15 18:38:00
12:39 PM,57.2,55.4,94,30.27,4.0,NW,10.4,-,N/A,Rain-Thunderstorm,Heavy Thunderstorms and Rain,310,2013-09-15 18:39:00
12:40 PM,57.2,55.4,94,30.27,3.0,NW,9.2,-,N/A,Rain-Thunderstorm,Heavy Thunderstorms and Rain,320,2013-09-15 18:40:00
12:43 PM,57.2,55.4,94,30.27,2.5,NW,8.1,-,N/A,Rain-Thunderstorm,Heavy Thunderstorms and Rain,310,2013-09-15 18:43:00
12:49 PM,57.2,55.4,94,30.28,2.5,WNW,5.8,-,N/A,Rain-Thunderstorm,Heavy Thunderstorms and Rain,290,2013-09-15 18:49:00
12:50 PM,57.2,55.4,94,30.28,3.0,WNW,5.8,-,N/A,Rain-Thunderstorm,Heavy Thunderstorms and Rain,290,2013-09-15 18:50:00
12:53 PM,57.2,55.4,94,30.28,3.0,NW,8.1,-,N/A,Rain-Thunderstorm,Thunderstorms and Rain,310,2013-09-15 18:53:00
12:55 PM,57.2,55.4,94,30.28,3.0,NW,6.9,-,N/A,Rain-Thunderstorm,Thunderstorms and Rain,310,2013-09-15 18:55:00
12:56 PM,57.2,55.4,94,30.28,4.0,NW,6.9,-,N/A,Rain-Thunderstorm,Thunderstorms and Rain,310,2013-09-15 18:56:00
12:58 PM,57.2,55.4,94,30.28,5.0,NW,8.1,-,N/A,Rain-Thunderstorm,Thunderstorms and Rain,320,2013-09-15 18:58:00
1:14 PM,57.2,55.4,94,30.29,4.0,NNW,9.2,-,N/A,Rain-Thunderstorm,Heavy Thunderstorms and Rain,330,2013-09-15 19:14:00
1:16 PM,57.2,55.4,94,30.29,3.0,NNW,8.1,-,N/A,Rain-Thunderstorm,Heavy Thunderstorms and Rain,330,2013-09-15 19:16:00
1:20 PM,57.2,55.4,94,30.28,3.0,NNW,10.4,-,N/A,Rain-Thunderstorm,Heavy Rain,330,2013-09-15 19:20:00
1:24 PM,57.2,57.2,100,30.28,4.0,NNW,10.4,-,N/A,Rain-Thunderstorm,Light Rain,330,2013-09-15 19:24:00
1:26 PM,57.2,57.2,100,30.28,5.0,NNW,9.2,-,N/A,Rain-Thunderstorm,Light Rain,330,2013-09-15 19:26:00
1:27 PM,57.2,57.2,100,30.28,6.0,NNW,9.2,-,N/A,Rain-Thunderstorm,Light Rain,330,2013-09-15 19:27:00
1:32 PM,57.2,57.2,100,30.28,10.0,NNW,9.2,-,N/A,Rain-Thunderstorm,Light Rain,340,2013-09-15 19:32:00
1:40 PM,57.2,57.2,100,30.28,10.0,NNW,8.1,-,N/A,Thunderstorm,Light Drizzle,340,2013-09-15 19:40:00
1:43 PM,57.2,57.2,100,30.29,10.0,NNW,6.9,-,N/A,,Scattered Clouds,330,2013-09-15 19:43:00
1:55 PM,57.2,57.2,100,30.29,10.0,NW,6.9,-,N/A,,Scattered Clouds,320,2013-09-15 19:55:00
2:01 PM,57.2,57.2,100,30.29,10.0,NNW,8.1,-,N/A,Thunderstorm,Thunderstorm,330,2013-09-15 20:01:00
2:05 PM,57.2,55.4,94,30.29,10.0,NW,9.2,-,N/A,Rain-Thunderstorm,Light Thunderstorms and Rain,320,2013-09-15 20:05:00
2:16 PM,57.2,55.4,94,30.29,10.0,NNW,8.1,-,N/A,Rain,Light Rain,330,2013-09-15 20:16:00
2:29 PM,57.2,55.4,94,30.28,9.0,NNW,8.1,-,N/A,Rain,Rain,330,2013-09-15 20:29:00
2:39 PM,57.2,57.2,100,30.28,6.0,NNW,10.4,-,N/A,Rain,Rain,330,2013-09-15 20:39:00
2:46 PM,57.2,55.4,94,30.28,7.0,NW,11.5,-,N/A,Rain-Thunderstorm,Light Rain,320,2013-09-15 20:46:00
2:55 PM,59.0,55.4,88,30.28,10.0,NNW,12.7,-,N/A,,Light Drizzle,330,2013-09-15 20:55:00
2:59 PM,57.2,55.4,94,30.28,10.0,NNW,13.8,-,N/A,,Overcast,330,2013-09-15 20:59:00
3:07 PM,57.2,55.4,94,30.28,10.0,NNW,13.8,-,N/A,,Mostly Cloudy,330,2013-09-15 21:07:00
3:13 PM,57.2,53.6,88,30.29,10.0,NNW,12.7,-,N/A,,Mostly Cloudy,340,2013-09-15 21:13:00
3:47 PM,57.2,53.6,88,30.29,10.0,NNW,11.5,-,N/A,,Mostly Cloudy,330,2013-09-15 21:47:00
3:51 PM,57.2,53.6,88,30.29,10.0,NNW,11.5,-,N/A,Rain,Light Rain,330,2013-09-15 21:51:00
3:55 PM,55.4,51.8,88,30.29,10.0,NNW,11.5,-,N/A,Rain,Light Rain,330,2013-09-15 21:55:00
4:09 PM,55.4,53.6,94,30.30,10.0,NNW,8.1,-,N/A,Rain,Light Rain,330,2013-09-15 22:09:00
4:29 PM,55.4,53.6,94,30.30,5.0,NNW,8.1,-,N/A,Rain,Heavy Rain,330,2013-09-15 22:29:00
4:32 PM,55.4,53.6,94,30.30,4.0,NNW,6.9,-,N/A,Rain,Heavy Rain,340,2013-09-15 22:32:00
4:35 PM,55.4,53.6,94,30.31,4.0,NNW,6.9,-,N/A,Rain,Heavy Rain,340,2013-09-15 22:35:00
4:36 PM,55.4,53.6,94,30.30,4.0,NNW,6.9,-,N/A,Rain,Heavy Rain,340,2013-09-15 22:36:00
4:40 PM,55.4,53.6,94,30.30,3.0,North,8.1,-,N/A,Rain,Heavy Rain,350,2013-09-15 22:40:00
4:42 PM,55.4,53.6,94,30.30,4.0,North,6.9,-,N/A,Rain,Heavy Rain,350,2013-09-15 22:42:00
4:44 PM,55.4,53.6,94,30.30,4.0,NNW,6.9,-,N/A,Rain,Rain,340,2013-09-15 22:44:00
4:55 PM,55.4,53.6,94,30.31,4.0,NNW,8.1,-,N/A,Rain,Rain,330,2013-09-15 22:55:00
4:56 PM,55.4,53.6,94,30.30,5.0,NNW,6.9,-,N/A,Rain,Rain,330,2013-09-15 22:56:00
5:01 PM,55.4,55.4,100,30.30,5.0,North,6.9,-,N/A,Rain,Rain,350,2013-09-15 23:01:00
5:09 PM,55.4,53.6,94,30.30,5.0,North,9.2,-,N/A,Rain,Heavy Rain,360,2013-09-15 23:09:00
5:17 PM,55.4,55.4,100,30.30,8.0,North,10.4,-,N/A,Rain,Rain,350,2013-09-15 23:17:00
5:18 PM,55.4,55.4,100,30.30,8.0,North,11.5,-,N/A,Rain,Rain,350,2013-09-15 23:18:00
5:28 PM,55.4,55.4,100,30.30,10.0,NNW,9.2,-,N/A,Rain,Rain,340,2013-09-15 23:28:00
5:34 PM,57.2,55.4,94,30.30,10.0,NNW,9.2,-,N/A,Rain,Light Rain,340,2013-09-15 23:34:00
5:44 PM,57.2,55.4,94,30.30,10.0,North,12.7,-,N/A,Rain,Rain,350,2013-09-15 23:44:00
5:55 PM,57.2,53.6,88,30.30,10.0,NNW,9.2,-,N/A,Rain,Light Rain,340,2013-09-15 23:55:00
6:06 PM,57.2,53.6,88,30.31,10.0,NNW,9.2,-,N/A,,Overcast,330,2013-09-16 00:06:00
6:39 PM,55.4,53.6,94,30.32,10.0,NW,8.1,-,N/A,,Overcast,320,2013-09-16 00:39:00
6:40 PM,55.4,53.6,94,30.32,10.0,NW,8.1,-,N/A,,Overcast,320,2013-09-16 00:40:00
6:55 PM,55.4,53.6,94,30.32,10.0,NW,8.1,-,N/A,,Mostly Cloudy,320,2013-09-16 00:55:00
7:55 PM,55.4,53.6,94,30.33,10.0,NW,8.1,-,N/A,,Overcast,320,2013-09-16 01:55:00
7:56 PM,55.4,53.6,94,30.33,10.0,NW,8.1,-,N/A,,Light Drizzle,320,2013-09-16 01:56:00
8:06 PM,53.6,53.6,100,30.34,8.0,NW,8.1,-,N/A,,Overcast,310,2013-09-16 02:06:00
8:13 PM,53.6,53.6,100,30.34,8.0,NW,5.8,-,N/A,,Overcast,320,2013-09-16 02:13:00
8:34 PM,53.6,53.6,100,30.35,10.0,WNW,4.6,-,N/A,,Overcast,300,2013-09-16 02:34:00
8:40 PM,53.6,53.6,100,30.35,10.0,NW,4.6,-,N/A,Rain,Light Rain,310,2013-09-16 02:40:00
8:47 PM,53.6,53.6,100,30.35,4.0,WNW,3.5,-,N/A,Rain,Light Rain,300,2013-09-16 02:47:00
8:50 PM,53.6,53.6,100,30.35,3.0,WNW,3.5,-,N/A,Rain,Rain,290,2013-09-16 02:50:00
8:55 PM,53.6,53.6,100,30.35,3.0,WNW,3.5,-,N/A,Rain,Light Rain,290,2013-09-16 02:55:00
8:56 PM,53.6,53.6,100,30.35,4.0,WNW,3.5,-,N/A,Rain,Light Rain,290,2013-09-16 02:56:00
8:57 PM,53.6,53.6,100,30.35,4.0,WNW,2.3,-,N/A,Rain,Light Rain,300,2013-09-16 02:57:00
8:59 PM,53.6,53.6,100,30.35,5.0,WNW,3.5,-,N/A,Rain,Light Rain,290,2013-09-16 02:59:00
9:02 PM,53.6,53.6,100,30.35,6.0,WNW,3.5,-,N/A,Rain,Light Rain,300,2013-09-16 03:02:00
9:08 PM,53.6,53.6,100,30.35,5.0,NW,4.6,-,N/A,Rain,Light Rain,310,2013-09-16 03:08:00
9:09 PM,53.6,53.6,100,30.35,4.0,NW,4.6,-,N/A,Rain,Light Rain,310,2013-09-16 03:09:00
9:12 PM,53.6,53.6,100,30.35,3.0,NW,3.5,-,N/A,Rain,Rain,310,2013-09-16 03:12:00
9:13 PM,53.6,53.6,100,30.35,3.0,NW,3.5,-,N/A,Rain,Rain,310,2013-09-16 03:13:00
9:16 PM,53.6,53.6,100,30.35,2.5,NW,3.5,-,N/A,Rain,Rain,310,2013-09-16 03:16:00
9:19 PM,53.6,53.6,100,30.35,3.0,NW,5.8,-,N/A,Rain,Rain,310,2013-09-16 03:19:00
9:24 PM,53.6,53.6,100,30.35,4.0,NW,8.1,-,N/A,Rain,Rain,320,2013-09-16 03:24:00
9:30 PM,53.6,53.6,100,30.35,5.0,NW,6.9,-,N/A,Rain,Light Rain,310,2013-09-16 03:30:00
9:35 PM,53.6,53.6,100,30.35,6.0,NW,5.8,-,N/A,Rain,Light Rain,310,2013-09-16 03:35:00
9:44 PM,53.6,53.6,100,30.35,10.0,NW,6.9,-,N/A,Rain,Light Rain,310,2013-09-16 03:44:00
9:47 PM,53.6,53.6,100,30.35,8.0,NW,6.9,-,N/A,Rain,Light Rain,310,2013-09-16 03:47:00
9:55 PM,53.6,53.6,100,30.36,8.0,WNW,5.8,-,N/A,Rain,Light Rain,300,2013-09-16 03:55:00
10:07 PM,53.6,53.6,100,30.36,10.0,WNW,3.5,-,N/A,Rain,Light Rain,300,2013-09-16 04:07:00
10:16 PM,53.6,53.6,100,30.36,10.0,NW,3.5,-,N/A,Rain,Light Rain,320,2013-09-16 04:16:00
10:20 PM,53.6,53.6,100,30.36,9.0,NW,3.5,-,N/A,Rain,Light Rain,320,2013-09-16 04:20:00
10:29 PM,53.6,53.6,100,30.36,8.0,NW,3.5,-,N/A,Rain,Light Rain,310,2013-09-16 04:29:00
10:46 PM,53.6,53.6,100,30.36,10.0,WNW,2.3,-,N/A,Rain,Light Rain,290,2013-09-16 04:46:00
10:49 PM,53.6,53.6,100,30.36,10.0,WNW,2.3,-,N/A,Rain,Light Rain,290,2013-09-16 04:49:00
10:53 PM,53.6,53.6,100,30.36,10.0,WNW,3.5,-,N/A,,Light Drizzle,290,2013-09-16 04:53:00
10:55 PM,53.6,53.6,100,30.36,10.0,WNW,3.5,-,N/A,,Light Drizzle,300,2013-09-16 04:55:00
11:05 PM,53.6,53.6,100,30.36,10.0,WNW,2.3,-,N/A,,Overcast,300,2013-09-16 05:05:00
11:41 PM,53.6,53.6,100,30.35,8.0,South,3.5,-,N/A,,Overcast,180,2013-09-16 05:41:00
11:44 PM,53.6,53.6,100,30.35,6.0,South,5.8,-,N/A,,Light Drizzle,190,2013-09-16 05:44:00
11:48 PM,53.6,53.6,100,30.35,4.0,South,5.8,-,N/A,,Light Drizzle,170,2013-09-16 05:48:00
11:53 PM,53.6,53.6,100,30.35,3.0,SSE,5.8,-,N/A,Rain,Light Rain,160,2013-09-16 05:53:00
11:55 PM,53.6,53.6,100,30.35,4.0,SSE,4.6,-,N/A,Rain,Light Rain,160,2013-09-16 05:55:00